DW8507 Weather Reports


time (UTC)temp
F
wind
direction
speed
knots
gust
knots
rain 1hr
in
rain 24hr
in
rain mn
in
humidity
%
barometer
mb
20260502160156 65 0 0.0 0.0 0.00 0.00 0.00 67 1006.7
20260502151656 70 0 0.0 0.0 0.00 0.00 0.00 51 1006.6
20260502150756 71 0 0.0 0.0 0.00 0.00 0.00 51 1007.0
20260502130407 72 0 0.0 0.0 0.00 0.00 0.00 50 1009.2
20260502123456 70 0 0.0 0.0 0.00 0.00 0.00 50 1009.3
20260502122557 70 0 0.0 0.0 0.00 0.00 0.00 50 1009.7
20260502121656 71 0 0.0 0.0 0.00 0.00 0.00 50 1009.8
20260502121007 71 0 0.0 0.0 0.00 0.00 0.00 50 1009.8
20260502115856 71 0 0.0 0.0 0.00 0.00 0.00 50 1009.9
20260502114956 70 0 0.0 0.0 0.00 0.00 0.00 51 1010.2
20260502114309 70 0 0.0 0.0 0.00 0.00 0.00 51 1010.3
20260502113157 69 0 0.0 0.0 0.00 0.00 0.00 51 1010.4
20260502112256 69 0 0.0 0.0 0.00 0.00 0.00 52 1010.6
20260502111356 69 0 0.0 0.0 0.00 0.00 0.00 51 1010.7
20260502110457 69 0 0.0 0.0 0.00 0.00 0.00 50 1010.6
20260502105805 69 0 0.0 0.0 0.00 0.00 0.00 50 1010.7
20260502104657 69 0 0.0 0.0 0.00 0.00 0.00 51 1010.9
20260502103756 68 0 0.0 0.0 0.00 0.00 0.00 52 1011.3
20260502102856 67 0 0.0 0.0 0.00 0.00 0.00 54 1011.6
20260502101956 67 0 0.0 0.0 0.00 0.00 0.00 54 1011.2
20260502101056 67 0 0.0 0.0 0.00 0.00 0.00 54 1011.6
20260502100156 66 0 0.0 0.0 0.00 0.00 0.00 54 1011.6
20260502090757 63 0 0.0 0.0 0.00 0.00 0.00 70 1012.1
20260502071056 54 0 0.0 0.0 0.00 0.00 0.00 84 1012.7
20260502070155 54 0 0.0 0.0 0.00 0.00 0.00 82 1012.8
20260502065258 54 0 0.0 0.0 0.00 0.00 0.00 83 1013.0
20260502064357 54 0 0.0 0.0 0.00 0.00 0.00 87 1012.7
20260502063708 54 0 0.0 0.0 0.00 0.00 0.00 88 1012.7
20260502062555 53 0 0.0 0.0 0.00 0.00 0.00 89 1012.7
20260502061656 52 0 0.0 0.0 0.00 0.00 0.00 89 1012.8
20260502061005 52 0 0.0 0.0 0.00 0.00 0.00 89 1012.8
20260502055855 51 0 0.0 0.0 0.00 0.00 0.00 88 1012.8
20260502055205 50 0 0.0 0.0 0.00 0.00 0.00 88 1012.7
20260502054055 50 0 0.0 0.0 0.00 0.00 0.00 88 1012.8
20260502053156 49 0 0.0 0.0 0.00 0.00 0.00 88 1012.8
20260502052255 49 0 0.0 0.0 0.00 0.00 0.00 88 1012.8
20260502051356 49 0 0.0 0.0 0.00 0.00 0.00 88 1012.7
20260502050707 49 0 0.0 0.0 0.00 0.00 0.00 87 1012.8
20260502045556 49 0 0.0 0.0 0.00 0.00 0.00 87 1012.7
20260502044656 49 0 0.0 0.0 0.00 0.00 0.00 87 1012.8
20260502043756 49 0 0.0 0.0 0.00 0.00 0.00 86 1012.6
20260502042856 49 0 0.0 0.0 0.00 0.00 0.00 86 1012.7
20260502041956 49 0 0.0 0.0 0.00 0.00 0.00 86 1012.7
20260502041056 49 0 0.0 0.0 0.00 0.00 0.00 85 1012.6
20260502040155 49 0 0.0 0.0 0.00 0.00 0.00 85 1012.5
20260502035256 49 0 0.0 0.0 0.00 0.00 0.00 85 1012.8
20260502034608 50 0 0.0 0.0 0.00 0.00 0.00 84 1012.9
20260502033457 50 0 0.0 0.0 0.00 0.00 0.00 84 1012.9
20260502032557 50 0 0.0 0.0 0.00 0.00 0.00 84 1012.8
20260502031656 50 0 0.0 0.0 0.00 0.00 0.00 84 1012.8
20260502031007 50 0 0.0 0.0 0.00 0.00 0.00 84 1012.9
20260502025857 51 0 0.0 0.0 0.00 0.00 0.00 83 1013.0
20260502024956 51 0 0.0 0.0 0.00 0.00 0.00 83 1012.9
20260502024057 51 0 0.0 0.0 0.00 0.00 0.00 83 1013.0
20260502023407 51 0 0.0 0.0 0.00 0.00 0.00 83 1012.9
20260502022255 52 0 0.0 0.0 0.00 0.00 0.00 83 1013.1
20260502021355 52 0 0.0 0.0 0.00 0.00 0.00 83 1013.1
20260502020709 52 0 0.0 0.0 0.00 0.00 0.00 82 1013.1
20260502015557 53 0 0.0 0.0 0.00 0.00 0.00 82 1012.9
20260502014657 53 0 0.0 0.0 0.00 0.00 0.00 82 1013.0
20260502014006 53 0 0.0 0.0 0.00 0.00 0.00 82 1012.9
20260502012855 53 0 0.0 0.0 0.00 0.00 0.00 81 1013.1
20260502011956 54 0 0.0 0.0 0.00 0.00 0.00 81 1013.0
20260502011055 54 0 0.0 0.0 0.00 0.00 0.00 77 1013.0
20260502010156 55 0 0.0 0.0 0.00 0.00 0.00 77 1013.1
20260502005256 55 0 0.0 0.0 0.00 0.00 0.00 77 1013.3
20260502004605 55 0 0.0 0.0 0.00 0.00 0.00 77 1013.6
20260502003456 56 0 0.0 0.0 0.00 0.00 0.00 77 1013.3
20260502002557 56 0 0.0 0.0 0.00 0.00 0.00 76 1013.8
20260502001656 56 0 0.0 0.0 0.00 0.00 0.00 76 1013.9
20260502001009 56 0 0.0 0.0 0.00 0.00 0.00 76 1014.1
20260501235855 57 0 0.0 0.0 0.00 0.00 0.00 75 1013.8
20260501234955 57 0 0.0 0.0 0.00 0.00 0.00 75 1013.9
20260501234306 57 0 0.0 0.0 0.00 0.00 0.00 75 1013.8
20260501233155 57 0 0.0 0.0 0.00 0.00 0.00 74 1013.8
20260501232256 58 0 0.0 0.0 0.00 0.00 0.00 74 1014.0
20260501231357 58 0 0.0 0.0 0.00 0.00 0.00 74 1014.0
20260501230457 58 0 0.0 0.0 0.00 0.00 0.00 74 1013.9
20260501225556 58 0 0.0 0.0 0.00 0.00 0.00 74 1014.1
20260501224656 59 0 0.0 0.0 0.00 0.00 0.00 74 1013.7
20260501223756 59 0 0.0 0.0 0.00 0.00 0.00 74 1013.7
20260501222855 59 0 0.0 0.0 0.00 0.00 0.00 74 1013.7
20260501221956 60 0 0.0 0.0 0.00 0.00 0.00 74 1013.7
20260501221055 60 0 0.0 0.0 0.00 0.00 0.00 74 1013.9
20260501220155 61 0 0.0 0.0 0.00 0.00 0.00 76 1013.9
20260501215256 61 0 0.0 0.0 0.00 0.00 0.00 77 1013.9
20260501214355 62 0 0.0 0.0 0.00 0.00 0.00 78 1013.9
20260501213709 62 0 0.0 0.0 0.00 0.00 0.00 78 1013.9
20260501212555 62 0 0.0 0.0 0.00 0.00 0.00 78 1013.8
20260501211655 62 0 0.0 0.0 0.00 0.00 0.00 77 1013.8
20260501210755 62 0 0.0 0.0 0.00 0.00 0.00 77 1013.7
20260501205855 62 0 0.0 0.0 0.00 0.00 0.00 77 1013.6
20260501204957 62 0 0.0 0.0 0.00 0.00 0.00 78 1013.6
20260501204055 62 0 0.0 0.0 0.00 0.00 0.00 78 1013.6
20260501203157 62 0 0.0 0.0 0.00 0.00 0.00 78 1013.5
20260501202257 62 0 0.0 0.0 0.00 0.00 0.00 77 1013.7
20260501201356 62 0 0.0 0.0 0.00 0.00 0.00 76 1013.5
20260501200456 62 0 0.0 0.0 0.00 0.00 0.00 75 1013.6
20260501195556 62 0 0.0 0.0 0.00 0.00 0.00 74 1013.6
20260501194907 63 0 0.0 0.0 0.00 0.00 0.00 74 1013.4
20260501193757 63 0 0.0 0.0 0.00 0.00 0.00 73 1013.5
20260501192855 64 0 0.0 0.0 0.00 0.00 0.00 70 1013.3
20260501191955 64 0 0.0 0.0 0.00 0.00 0.00 68 1013.4
20260501191057 65 0 0.0 0.0 0.00 0.00 0.00 66 1013.3
20260501190157 65 0 0.0 0.0 0.00 0.00 0.00 66 1013.0
20260501185257 66 0 0.0 0.0 0.00 0.00 0.00 66 1013.0
20260501184356 66 0 0.0 0.0 0.00 0.00 0.00 66 1013.1
20260501183455 67 0 0.0 0.0 0.00 0.00 0.00 65 1012.8
20260501182555 67 0 0.0 0.0 0.00 0.00 0.00 65 1012.9
20260501181656 67 0 0.0 0.0 0.00 0.00 0.00 66 1012.9
20260501180755 68 0 0.0 0.0 0.00 0.00 0.00 65 1013.0
20260501175855 68 0 0.0 0.0 0.00 0.00 0.00 64 1013.0
20260501175208 69 0 0.0 0.0 0.00 0.00 0.00 63 1013.0
20260501174055 69 0 0.0 0.0 0.00 0.00 0.00 63 1012.7
20260501173407 69 0 0.0 0.0 0.00 0.00 0.00 63 1012.9
20260501172255 70 0 0.0 0.0 0.00 0.00 0.00 62 1012.9
20260501171607 70 0 0.0 0.0 0.00 0.00 0.00 63 1012.8
20260501170456 70 0 0.0 0.0 0.00 0.00 0.00 64 1013.0
20260501165556 70 0 0.0 0.0 0.00 0.00 0.00 64 1012.9
20260501164655 70 0 0.0 0.0 0.00 0.00 0.00 65 1012.8
20260501163755 70 0 0.0 0.0 0.00 0.00 0.00 66 1012.9
20260501162855 70 0 0.0 0.0 0.00 0.00 0.00 65 1012.9
20260501161955 71 0 0.0 0.0 0.00 0.00 0.00 63 1013.0
20260501161055 71 0 0.0 0.0 0.00 0.00 0.00 65 1013.0